Weather History for KAGS - August, 2014

Change the Weather History Date:

Friday, August 22, 2014

  Actual Average Record
Temperature  
Mean Temperature 85 °F 80 °F  
Max Temperature 99 °F 91 °F 107 °F (1983)
Min Temperature 70 °F 69 °F 57 °F (1998)
Degree Days  
Heating Degree Days 0 0  
Month to date heating degree days 0 0  
Since 1 June heating degree days 0 0  
Since 1 July heating degree days 0 0  
Cooling Degree Days 20 15  
Month to date cooling degree days 331 352  
Year to date cooling degree days 1519 1558  
Since 1 June cooling degree days 1235 1275  
Growing Degree Days 34 (Base 50)    
Moisture  
Dew Point 70 °F    
Average Humidity 69    
Maximum Humidity 100    
Minimum Humidity 38    
Precipitation  
Precipitation 0.00 in 0.14 in 1.98 in (1952)
Month to date precipitation 1.64 3.16  
Year to date precipitation 28.30 29.71  
Sea Level Pressure  
Sea Level Pressure 30.00 in    
Wind  
Wind Speed 4 mph (NW)    
Max Wind Speed 15 mph    
Max Gust Speed 22 mph    
Visibility 10 miles    
Events      
T = Trace of Precipitation, MM = Missing Value Source: NWS Daily Summary

Daily Weather History Graph

Daily Weather History Graph

Search for Another Location

Airport or City:

Trip Planner

Search our weather history database for the weather conditions in past years. The results will help you decide how hot, cold, wet, or windy it might be!

Date:

Astronomy

Aug. 22, 2014 Rise Set
Actual Time 6:55 AM EDT 8:05 PM EDT
Civil Twilight 6:29 AM EDT 8:31 PM EDT
Nautical Twilight 5:58 AM EDT 9:02 PM EDT
Astronomical Twilight 5:26 AM EDT 9:33 PM EDT
Moon 4:20 AM EDT (8/22) 6:10 PM EDT (8/22)
Length of Visible Light 14h 01m
Length of Day
13h 10m
Waning Crescent, 8% of the Moon is Illuminated
Aug 22
Waning Crescent
Aug 25
New
Sep 2
First Quarter
Sep 8
Full
Sep 15
Last Quarter

Hourly Weather History & Observations

Time (EDT) Temp. Heat Index Dew Point Humidity Pressure Visibility Wind Dir Wind Speed Gust Speed Precip Events Conditions
12:53 AM 73.0 °F - 71.1 °F 93% 30.05 in 10.0 mi SSE 3.5 mph - N/A   Clear
1:53 AM 73.9 °F - 71.1 °F 91% 30.04 in 10.0 mi Calm Calm - N/A   Clear
2:53 AM 72.0 °F - 71.1 °F 97% 30.04 in 8.0 mi Calm Calm - N/A   Clear
3:53 AM 73.0 °F - 70.0 °F 90% 30.03 in 10.0 mi South 3.5 mph - N/A   Clear
4:53 AM 71.6 °F - 69.8 °F 94% 30.02 in 10.0 mi Calm Calm - N/A   Clear
5:53 AM 71.1 °F - 69.1 °F 93% 30.01 in 10.0 mi Calm Calm - N/A   Clear
6:53 AM 71.1 °F - 69.1 °F 93% 30.02 in 10.0 mi Calm Calm - N/A   Clear
7:53 AM 73.4 °F - 69.8 °F 88% 30.05 in 10.0 mi Calm Calm - N/A   Clear
8:53 AM 82.0 °F 86.3 °F 71.1 °F 69% 30.05 in 10.0 mi North 3.5 mph - N/A   Clear
9:53 AM 87.1 °F 93.6 °F 72.0 °F 61% 30.06 in 10.0 mi Calm Calm - N/A   Clear
10:53 AM 91.9 °F 98.4 °F 71.1 °F 50% 30.06 in 10.0 mi North 8.1 mph - N/A   Clear
11:53 AM 93.9 °F 100.3 °F 70.0 °F 46% 30.04 in 10.0 mi NNW 12.7 mph - N/A   Clear
12:53 PM 96.1 °F 101.6 °F 69.1 °F 41% 30.03 in 10.0 mi West 11.5 mph - N/A   Clear
1:53 PM 97.0 °F 102.8 °F 69.1 °F 40% 30.01 in 10.0 mi WNW 12.7 mph 17.3 mph N/A   Clear
2:53 PM 96.1 °F 101.6 °F 69.1 °F 41% 29.99 in 10.0 mi NW 9.2 mph - N/A   Partly Cloudy
3:53 PM 98.1 °F 103.0 °F 68.0 °F 37% 29.96 in 10.0 mi North 8.1 mph - N/A   Scattered Clouds
4:53 PM 98.6 °F 104.1 °F 68.0 °F 37% 29.95 in 10.0 mi NW 9.2 mph - N/A   Scattered Clouds
5:53 PM 96.1 °F 101.0 °F 68.0 °F 40% 29.93 in 10.0 mi WNW 8.1 mph - N/A   Partly Cloudy
6:53 PM 97.0 °F 102.2 °F 68.0 °F 39% 29.93 in 10.0 mi West 8.1 mph - N/A   Scattered Clouds
7:53 PM 93.0 °F 97.4 °F 68.0 °F 44% 29.94 in 10.0 mi NNW 3.5 mph - N/A   Partly Cloudy
8:53 PM 82.0 °F 86.7 °F 72.0 °F 71% 29.94 in 10.0 mi South 3.5 mph - N/A   Partly Cloudy
9:53 PM 80.1 °F 83.8 °F 72.0 °F 76% 29.95 in 10.0 mi Calm Calm - N/A   Clear
10:53 PM 77.0 °F - 73.0 °F 88% 29.96 in 10.0 mi Calm Calm - N/A   Clear
11:53 PM 75.9 °F - 73.0 °F 91% 29.96 in 10.0 mi Calm Calm - N/A   Clear